| time (UTC) | temp F | wind direction | speed MPH | gust MPH | rain 1hr in | rain 24hr in | rain mn in | humidity % | barometer mb |
| 20260506102005 | 59 | 245 | 0.0 | 2.0 | 0.00 | 0.00 | 0.00 | 83 | 1018.2 |
| 20260506101004 | 59 | 160 | 1.0 | 2.0 | 0.00 | 0.00 | 0.00 | 83 | 1018.1 |
| 20260506100504 | 59 | 179 | 2.0 | 3.0 | 0.00 | 0.00 | 0.00 | 83 | 1018.1 |
| 20260506100004 | 59 | 171 | 2.0 | 3.0 | 0.00 | 0.00 | 0.00 | 83 | 1018.1 |
| 20260506095504 | 59 | 170 | 1.0 | 3.0 | 0.00 | 0.00 | 0.00 | 83 | 1018.1 |
| 20260506094504 | 59 | 164 | 1.0 | 3.0 | 0.00 | 0.00 | 0.00 | 83 | 1018.1 |
| 20260506094005 | 59 | 197 | 2.0 | 3.0 | 0.00 | 0.00 | 0.00 | 84 | 1018.1 |
| 20260506093504 | 59 | 162 | 1.0 | 3.0 | 0.00 | 0.00 | 0.00 | 84 | 1018.2 |
| 20260506093005 | 59 | 177 | 1.0 | 3.0 | 0.00 | 0.00 | 0.00 | 84 | 1018.2 |
| 20260506092505 | 59 | 181 | 1.0 | 3.0 | 0.00 | 0.00 | 0.00 | 84 | 1018.2 |
| 20260506092005 | 59 | 201 | 2.0 | 5.0 | 0.00 | 0.00 | 0.00 | 83 | 1018.2 |
| 20260506091504 | 59 | 206 | 2.0 | 3.0 | 0.00 | 0.00 | 0.00 | 83 | 1018.2 |
| 20260506091004 | 59 | 190 | 2.0 | 3.0 | 0.00 | 0.00 | 0.00 | 83 | 1018.2 |
| 20260506090505 | 59 | 199 | 2.0 | 3.0 | 0.00 | 0.00 | 0.00 | 83 | 1018.2 |
| 20260506090005 | 59 | 180 | 2.0 | 3.0 | 0.00 | 0.00 | 0.00 | 83 | 1018.2 |
| 20260506085505 | 59 | 167 | 2.0 | 3.0 | 0.00 | 0.00 | 0.00 | 83 | 1018.2 |
| 20260506085004 | 59 | 195 | 1.0 | 3.0 | 0.00 | 0.00 | 0.00 | 83 | 1018.2 |
| 20260506084504 | 60 | 182 | 2.0 | 5.0 | 0.00 | 0.00 | 0.00 | 82 | 1018.1 |
| 20260506083505 | 60 | 158 | 2.0 | 5.0 | 0.00 | 0.00 | 0.00 | 82 | 1018.1 |
| 20260506083005 | 60 | 116 | 2.0 | 3.0 | 0.00 | 0.00 | 0.00 | 82 | 1018.1 |
| 20260506082505 | 60 | 167 | 2.0 | 3.0 | 0.00 | 0.00 | 0.00 | 82 | 1018.1 |
| 20260506082004 | 60 | 199 | 2.0 | 3.0 | 0.00 | 0.00 | 0.00 | 82 | 1018.1 |
| 20260506081504 | 60 | 194 | 2.0 | 3.0 | 0.00 | 0.00 | 0.00 | 82 | 1018.0 |
| 20260506081005 | 60 | 171 | 1.0 | 3.0 | 0.00 | 0.00 | 0.00 | 82 | 1018.0 |
| 20260506080504 | 60 | 198 | 2.0 | 3.0 | 0.00 | 0.00 | 0.00 | 81 | 1018.0 |
| 20260506073505 | 60 | 158 | 1.0 | 2.0 | 0.00 | 0.00 | 0.00 | 81 | 1017.8 |
| 20260506073004 | 60 | 162 | 2.0 | 3.0 | 0.00 | 0.00 | 0.00 | 81 | 1017.8 |
| 20260506072504 | 60 | 178 | 1.0 | 2.0 | 0.00 | 0.00 | 0.00 | 81 | 1017.7 |
| 20260506072005 | 60 | 214 | 1.0 | 2.0 | 0.00 | 0.00 | 0.00 | 81 | 1017.6 |
| 20260506071505 | 60 | 199 | 2.0 | 2.0 | 0.00 | 0.00 | 0.00 | 80 | 1017.6 |
| 20260506071005 | 60 | 156 | 1.0 | 2.0 | 0.00 | 0.00 | 0.00 | 81 | 1017.6 |
| 20260506062504 | 60 | 203 | 1.0 | 3.0 | 0.00 | 0.00 | 0.00 | 81 | 1017.2 |
| 20260506062005 | 60 | 218 | 2.0 | 5.0 | 0.00 | 0.00 | 0.00 | 81 | 1017.2 |
| 20260506061005 | 60 | 194 | 2.0 | 6.0 | 0.00 | 0.00 | 0.00 | 81 | 1017.0 |
| 20260506060505 | 61 | 210 | 2.0 | 5.0 | 0.00 | 0.00 | 0.00 | 81 | 1017.1 |
| 20260506051005 | 61 | 261 | 3.0 | 5.0 | 0.00 | 0.00 | 0.00 | 79 | 1016.7 |
| 20260506050505 | 61 | 263 | 2.0 | 6.0 | 0.00 | 0.00 | 0.00 | 79 | 1016.6 |
| 20260506045004 | 62 | 192 | 3.0 | 8.0 | 0.00 | 0.00 | 0.00 | 79 | 1016.3 |
| 20260506044004 | 62 | 198 | 3.0 | 6.0 | 0.00 | 0.00 | 0.00 | 79 | 1016.2 |
| 20260506043505 | 62 | 206 | 3.0 | 7.0 | 0.00 | 0.00 | 0.00 | 79 | 1016.2 |
| 20260506043004 | 62 | 199 | 2.0 | 6.0 | 0.00 | 0.00 | 0.00 | 78 | 1016.0 |
| 20260506042505 | 62 | 206 | 3.0 | 7.0 | 0.00 | 0.00 | 0.00 | 78 | 1016.0 |
| 20260506042005 | 62 | 266 | 1.0 | 6.0 | 0.00 | 0.00 | 0.00 | 79 | 1015.9 |
| 20260506041504 | 62 | 237 | 3.0 | 7.0 | 0.00 | 0.00 | 0.00 | 78 | 1015.7 |
| 20260506041004 | 62 | 210 | 5.0 | 8.0 | 0.00 | 0.00 | 0.00 | 78 | 1015.7 |
| 20260506040004 | 62 | 208 | 5.0 | 8.0 | 0.00 | 0.00 | 0.00 | 78 | 1015.7 |
| 20260506035505 | 62 | 201 | 3.0 | 6.0 | 0.00 | 0.00 | 0.00 | 78 | 1015.8 |
| 20260506035005 | 62 | 215 | 3.0 | 7.0 | 0.00 | 0.00 | 0.00 | 78 | 1015.8 |
| 20260506034504 | 62 | 191 | 3.0 | 9.0 | 0.00 | 0.00 | 0.00 | 78 | 1015.8 |
| 20260506034004 | 62 | 216 | 3.0 | 6.0 | 0.00 | 0.00 | 0.00 | 78 | 1015.7 |
| 20260506033504 | 63 | 208 | 5.0 | 8.0 | 0.00 | 0.00 | 0.00 | 78 | 1015.6 |
| 20260506033005 | 63 | 201 | 4.0 | 7.0 | 0.00 | 0.00 | 0.00 | 77 | 1015.5 |
| 20260506032505 | 63 | 242 | 3.0 | 6.0 | 0.00 | 0.00 | 0.00 | 77 | 1015.4 |
| 20260506032005 | 63 | 240 | 2.0 | 7.0 | 0.00 | 0.00 | 0.00 | 76 | 1015.3 |
| 20260506031505 | 63 | 247 | 3.0 | 7.0 | 0.00 | 0.00 | 0.00 | 76 | 1015.2 |
| 20260506024005 | 64 | 221 | 5.0 | 9.0 | 0.00 | 0.00 | 0.00 | 75 | 1014.7 |
| 20260506023505 | 64 | 221 | 7.0 | 10.0 | 0.00 | 0.00 | 0.00 | 74 | 1014.6 |
| 20260506023005 | 65 | 212 | 5.0 | 9.0 | 0.00 | 0.00 | 0.00 | 75 | 1014.6 |
| 20260506022005 | 65 | 220 | 4.0 | 9.0 | 0.00 | 0.00 | 0.00 | 74 | 1014.5 |
| 20260506021505 | 65 | 179 | 6.0 | 9.0 | 0.00 | 0.00 | 0.00 | 74 | 1014.4 |
| 20260506021005 | 65 | 206 | 5.0 | 9.0 | 0.00 | 0.00 | 0.00 | 73 | 1014.3 |
| 20260506020504 | 65 | 211 | 5.0 | 9.0 | 0.00 | 0.00 | 0.00 | 73 | 1014.3 |
| 20260506015004 | 65 | 232 | 6.0 | 8.0 | 0.00 | 0.00 | 0.00 | 72 | 1014.3 |
| 20260506014504 | 65 | 215 | 6.0 | 10.0 | 0.00 | 0.00 | 0.00 | 72 | 1014.2 |
| 20260506014004 | 65 | 202 | 6.0 | 10.0 | 0.00 | 0.00 | 0.00 | 72 | 1014.2 |
| 20260506013505 | 65 | 201 | 3.0 | 8.0 | 0.00 | 0.00 | 0.00 | 72 | 1014.3 |
| 20260506013005 | 65 | 207 | 4.0 | 9.0 | 0.00 | 0.00 | 0.00 | 72 | 1014.3 |
| 20260506012505 | 65 | 231 | 6.0 | 9.0 | 0.00 | 0.00 | 0.00 | 72 | 1014.3 |
| 20260506012004 | 65 | 235 | 5.0 | 8.0 | 0.00 | 0.00 | 0.00 | 72 | 1014.3 |
| 20260506011505 | 65 | 184 | 3.0 | 8.0 | 0.00 | 0.00 | 0.00 | 73 | 1014.3 |
| 20260506011005 | 66 | 240 | 4.0 | 8.0 | 0.00 | 0.00 | 0.00 | 73 | 1014.3 |
| 20260506010504 | 66 | 218 | 5.0 | 12.0 | 0.00 | 0.00 | 0.00 | 73 | 1014.2 |
| 20260506010004 | 66 | 217 | 3.0 | 12.0 | 0.00 | 0.00 | 0.00 | 70 | 1014.1 |
| 20260506005504 | 66 | 227 | 3.0 | 9.0 | 0.00 | 0.00 | 0.00 | 68 | 1013.9 |
| 20260506004505 | 67 | 166 | 5.0 | 10.0 | 0.00 | 0.00 | 0.00 | 67 | 1013.9 |
| 20260506004004 | 67 | 179 | 3.0 | 8.0 | 0.00 | 0.00 | 0.00 | 66 | 1013.8 |
| 20260506003504 | 67 | 170 | 3.0 | 10.0 | 0.00 | 0.00 | 0.00 | 67 | 1013.8 |
| 20260506003004 | 67 | 179 | 2.0 | 7.0 | 0.00 | 0.00 | 0.00 | 64 | 1013.7 |
| 20260506002505 | 67 | 250 | 3.0 | 6.0 | 0.00 | 0.00 | 0.00 | 64 | 1013.7 |
| 20260506002005 | 67 | 172 | 4.0 | 9.0 | 0.00 | 0.00 | 0.00 | 65 | 1013.7 |
| 20260506000504 | 67 | 163 | 2.0 | 7.0 | 0.00 | 0.00 | 0.00 | 64 | 1013.7 |
| 20260505235505 | 67 | 161 | 4.0 | 7.0 | 0.00 | 0.00 | 0.00 | 64 | 1013.6 |
| 20260505235005 | 68 | 189 | 5.0 | 7.0 | 0.00 | 0.00 | 0.00 | 64 | 1013.6 |
| 20260505234005 | 68 | 152 | 3.0 | 7.0 | 0.00 | 0.00 | 0.00 | 63 | 1013.6 |
| 20260505233504 | 69 | 127 | 3.0 | 8.0 | 0.00 | 0.00 | 0.00 | 63 | 1013.5 |
| 20260505233004 | 69 | 105 | 3.0 | 7.0 | 0.00 | 0.00 | 0.00 | 61 | 1013.4 |
| 20260505232505 | 70 | 84 | 2.0 | 7.0 | 0.00 | 0.00 | 0.00 | 60 | 1013.5 |
| 20260505232005 | 70 | 16 | 3.0 | 6.0 | 0.00 | 0.00 | 0.00 | 61 | 1013.6 |
| 20260505231004 | 70 | 105 | 3.0 | 8.0 | 0.00 | 0.00 | 0.00 | 61 | 1013.6 |
| 20260505230505 | 70 | 34 | 2.0 | 5.0 | 0.00 | 0.00 | 0.00 | 61 | 1013.7 |
| 20260505230004 | 70 | 256 | 2.0 | 5.0 | 0.00 | 0.00 | 0.00 | 59 | 1013.7 |
| 20260505225504 | 69 | 37 | 2.0 | 3.0 | 0.00 | 0.00 | 0.00 | 60 | 1013.6 |
| 20260505224504 | 68 | 264 | 3.0 | 7.0 | 0.00 | 0.00 | 0.00 | 62 | 1013.8 |
| 20260505224005 | 68 | 238 | 3.0 | 7.0 | 0.00 | 0.00 | 0.00 | 62 | 1013.8 |
| 20260505223504 | 68 | 357 | 3.0 | 5.0 | 0.00 | 0.00 | 0.00 | 64 | 1014.0 |
| 20260505223005 | 67 | 289 | 2.0 | 3.0 | 0.00 | 0.00 | 0.00 | 65 | 1014.0 |
| 20260505222005 | 66 | 304 | 3.0 | 5.0 | 0.00 | 0.00 | 0.00 | 66 | 1014.2 |
| 20260505221504 | 65 | 299 | 2.0 | 3.0 | 0.00 | 0.00 | 0.00 | 66 | 1014.3 |
| 20260505221005 | 65 | 199 | 2.0 | 5.0 | 0.00 | 0.00 | 0.00 | 69 | 1014.4 |
| 20260505220504 | 65 | 172 | 3.0 | 6.0 | 0.00 | 0.00 | 0.00 | 70 | 1014.5 |
| 20260505220005 | 65 | 178 | 5.0 | 7.0 | 0.00 | 0.00 | 0.00 | 70 | 1014.4 |
| 20260505213505 | 65 | 282 | 3.0 | 8.0 | 0.00 | 0.00 | 0.00 | 69 | 1014.5 |
| 20260505212504 | 63 | 9 | 3.0 | 6.0 | 0.00 | 0.00 | 0.00 | 72 | 1014.7 |
| 20260505212004 | 63 | 18 | 4.0 | 7.0 | 0.00 | 0.00 | 0.00 | 73 | 1014.8 |
| 20260505210504 | 63 | 237 | 2.0 | 6.0 | 0.00 | 0.00 | 0.00 | 73 | 1014.8 |
| 20260505210005 | 63 | 348 | 2.0 | 5.0 | 0.00 | 0.00 | 0.00 | 73 | 1014.8 |
| 20260505205005 | 62 | 16 | 2.0 | 7.0 | 0.00 | 0.00 | 0.00 | 75 | 1014.9 |
| 20260505204504 | 62 | 22 | 2.0 | 5.0 | 0.00 | 0.00 | 0.00 | 76 | 1015.0 |
| 20260505204005 | 62 | 55 | 3.0 | 6.0 | 0.00 | 0.00 | 0.00 | 75 | 1014.9 |
| 20260505203505 | 62 | 61 | 2.0 | 5.0 | 0.00 | 0.00 | 0.00 | 76 | 1015.0 |
| 20260505203005 | 61 | 63 | 3.0 | 5.0 | 0.00 | 0.00 | 0.00 | 77 | 1015.1 |
| 20260505202504 | 61 | 341 | 3.0 | 6.0 | 0.00 | 0.00 | 0.00 | 77 | 1015.1 |
| 20260505202005 | 60 | 337 | 3.0 | 8.0 | 0.00 | 0.00 | 0.00 | 78 | 1015.1 |
| 20260505201505 | 60 | 320 | 3.0 | 7.0 | 0.00 | 0.00 | 0.00 | 80 | 1015.3 |
| 20260505201005 | 60 | 19 | 3.0 | 7.0 | 0.00 | 0.00 | 0.00 | 79 | 1015.3 |
| 20260505200504 | 61 | 356 | 2.0 | 7.0 | 0.00 | 0.00 | 0.00 | 79 | 1015.4 |
| 20260505200005 | 61 | 41 | 4.0 | 6.0 | 0.00 | 0.00 | 0.00 | 79 | 1015.3 |
| 20260505195505 | 61 | 334 | 3.0 | 3.0 | 0.00 | 0.00 | 0.00 | 78 | 1015.3 |
| 20260505195005 | 60 | 307 | 1.0 | 3.0 | 0.00 | 0.00 | 0.00 | 79 | 1015.4 |
| 20260505194504 | 60 | 337 | 3.0 | 5.0 | 0.00 | 0.00 | 0.00 | 80 | 1015.4 |
| 20260505193505 | 60 | 306 | 2.0 | 5.0 | 0.00 | 0.00 | 0.00 | 80 | 1015.4 |
| 20260505193004 | 59 | 357 | 3.0 | 6.0 | 0.00 | 0.00 | 0.00 | 82 | 1015.5 |
| 20260505192505 | 59 | 1 | 3.0 | 6.0 | 0.00 | 0.00 | 0.00 | 84 | 1015.7 |
| 20260505192005 | 59 | 36 | 2.0 | 5.0 | 0.00 | 0.00 | 0.00 | 83 | 1015.7 |
| 20260505191505 | 59 | 29 | 3.0 | 6.0 | 0.00 | 0.00 | 0.00 | 83 | 1015.6 |
| 20260505191004 | 59 | 328 | 2.0 | 6.0 | 0.00 | 0.00 | 0.00 | 82 | 1015.5 |
| 20260505190505 | 59 | 337 | 3.0 | 6.0 | 0.00 | 0.00 | 0.00 | 83 | 1015.6 |
| 20260505190005 | 58 | 7 | 2.0 | 3.0 | 0.00 | 0.00 | 0.00 | 84 | 1015.7 |
| 20260505185505 | 58 | 353 | 2.0 | 5.0 | 0.00 | 0.00 | 0.00 | 85 | 1015.7 |
| 20260505185005 | 58 | 328 | 3.0 | 7.0 | 0.00 | 0.00 | 0.00 | 86 | 1015.8 |
| 20260505184505 | 58 | 15 | 3.0 | 6.0 | 0.00 | 0.00 | 0.00 | 85 | 1015.7 |
| 20260505183504 | 58 | 4 | 2.0 | 6.0 | 0.00 | 0.00 | 0.00 | 86 | 1015.8 |
| 20260505183004 | 58 | 7 | 4.0 | 7.0 | 0.00 | 0.00 | 0.00 | 87 | 1015.8 |
| 20260505182505 | 58 | 2 | 3.0 | 6.0 | 0.00 | 0.00 | 0.00 | 86 | 1015.7 |
| 20260505182005 | 58 | 8 | 2.0 | 6.0 | 0.00 | 0.00 | 0.00 | 86 | 1015.7 |
| 20260505181004 | 58 | 5 | 1.0 | 6.0 | 0.00 | 0.00 | 0.00 | 86 | 1015.7 |
| 20260505180505 | 57 | 47 | 1.0 | 5.0 | 0.00 | 0.00 | 0.00 | 87 | 1015.5 |
| 20260505180004 | 57 | 3 | 4.0 | 6.0 | 0.00 | 0.00 | 0.00 | 87 | 1015.5 |
| 20260505174505 | 57 | 66 | 1.0 | 5.0 | 0.00 | 0.00 | 0.00 | 86 | 1015.5 |
| 20260505173005 | 57 | 20 | 2.0 | 6.0 | 0.00 | 0.00 | 0.00 | 88 | 1015.5 |
| 20260505172504 | 57 | 14 | 3.0 | 6.0 | 0.00 | 0.00 | 0.00 | 87 | 1015.4 |
| 20260505172004 | 57 | 17 | 3.0 | 5.0 | 0.00 | 0.00 | 0.00 | 87 | 1015.4 |
| 20260505171505 | 57 | 11 | 2.0 | 5.0 | 0.00 | 0.00 | 0.00 | 87 | 1015.4 |
| 20260505171005 | 57 | 358 | 3.0 | 5.0 | 0.00 | 0.00 | 0.00 | 87 | 1015.3 |
| 20260505170504 | 57 | 332 | 2.0 | 5.0 | 0.00 | 0.00 | 0.00 | 87 | 1015.4 |
| 20260505170004 | 57 | 353 | 3.0 | 5.0 | 0.00 | 0.00 | 0.00 | 88 | 1015.4 |
| 20260505165505 | 57 | 14 | 1.0 | 3.0 | 0.00 | 0.00 | 0.00 | 88 | 1015.5 |
| 20260505165004 | 56 | 58 | 2.0 | 3.0 | 0.00 | 0.00 | 0.00 | 88 | 1015.5 |
| 20260505164005 | 56 | 48 | 3.0 | 5.0 | 0.00 | 0.00 | 0.00 | 88 | 1015.3 |
| 20260505163504 | 56 | 2 | 2.0 | 3.0 | 0.00 | 0.00 | 0.00 | 87 | 1015.3 |
| 20260505163005 | 56 | 358 | 2.0 | 3.0 | 0.00 | 0.00 | 0.00 | 88 | 1015.3 |
| 20260505162505 | 56 | 325 | 2.0 | 3.0 | 0.00 | 0.00 | 0.00 | 88 | 1015.3 |
| 20260505162005 | 56 | 36 | 2.0 | 3.0 | 0.00 | 0.00 | 0.00 | 89 | 1015.3 |
| 20260505161505 | 56 | 352 | 2.0 | 5.0 | 0.00 | 0.00 | 0.00 | 88 | 1015.3 |
| 20260505161005 | 56 | 17 | 1.0 | 3.0 | 0.00 | 0.00 | 0.00 | 89 | 1015.3 |
| 20260505160504 | 56 | 27 | 1.0 | 3.0 | 0.00 | 0.00 | 0.00 | 89 | 1015.3 |
| 20260505153005 | 55 | 6 | 1.0 | 2.0 | 0.00 | 0.00 | 0.00 | 92 | 1015.8 |
| 20260505152504 | 55 | 327 | 1.0 | 2.0 | 0.00 | 0.00 | 0.00 | 91 | 1015.8 |
| 20260505152004 | 55 | 355 | 1.0 | 2.0 | 0.00 | 0.00 | 0.00 | 92 | 1015.8 |
| 20260505151505 | 55 | 306 | 0.0 | 1.0 | 0.00 | 0.00 | 0.00 | 92 | 1015.8 |
| 20260505151005 | 54 | 131 | 0.0 | 0.0 | 0.00 | 0.00 | 0.00 | 93 | 1015.7 |
| 20260505150504 | 54 | 131 | 0.0 | 1.0 | 0.00 | 0.00 | 0.00 | 93 | 1015.5 |
| 20260505140505 | 54 | 102 | 1.0 | 2.0 | 0.00 | 0.00 | 0.00 | 94 | 1015.0 |
| 20260505125004 | 53 | 223 | 3.0 | 6.0 | 0.00 | 0.00 | 0.00 | 94 | 1014.6 |
| 20260505124504 | 53 | 174 | 2.0 | 5.0 | 0.00 | 0.00 | 0.00 | 94 | 1014.6 |
| 20260505124005 | 53 | 177 | 2.0 | 6.0 | 0.00 | 0.00 | 0.00 | 94 | 1014.5 |
| 20260505123504 | 53 | 177 | 3.0 | 6.0 | 0.00 | 0.00 | 0.00 | 94 | 1014.5 |
| 20260505123005 | 53 | 168 | 3.0 | 7.0 | 0.00 | 0.00 | 0.00 | 94 | 1014.4 |
| 20260505122504 | 53 | 146 | 2.0 | 6.0 | 0.00 | 0.00 | 0.00 | 94 | 1014.5 |
| 20260505122005 | 53 | 167 | 2.0 | 5.0 | 0.00 | 0.00 | 0.00 | 94 | 1014.5 |
| 20260505121504 | 53 | 158 | 3.0 | 6.0 | 0.00 | 0.00 | 0.00 | 94 | 1014.5 |
| 20260505121004 | 53 | 161 | 3.0 | 6.0 | 0.00 | 0.00 | 0.00 | 94 | 1014.4 |
| 20260505120504 | 53 | 168 | 3.0 | 7.0 | 0.00 | 0.00 | 0.00 | 94 | 1014.4 |
| 20260505120006 | 53 | 159 | 2.0 | 6.0 | 0.00 | 0.00 | 0.00 | 94 | 1014.4 |
| 20260505114505 | 53 | 167 | 2.0 | 6.0 | 0.00 | 0.00 | 0.00 | 94 | 1014.6 |
| 20260505113504 | 53 | 157 | 3.0 | 5.0 | 0.00 | 0.00 | 0.00 | 94 | 1014.6 |
| 20260505113005 | 53 | 187 | 3.0 | 5.0 | 0.00 | 0.00 | 0.00 | 94 | 1014.6 |
| 20260505112004 | 53 | 168 | 2.0 | 5.0 | 0.00 | 0.00 | 0.00 | 94 | 1014.6 |
| 20260505111504 | 53 | 182 | 2.0 | 5.0 | 0.00 | 0.00 | 0.00 | 94 | 1014.7 |
| 20260505111004 | 53 | 166 | 2.0 | 6.0 | 0.00 | 0.00 | 0.00 | 94 | 1014.7 |